Weather History for KHKY - March, 2012

Change the Weather History Date:

Saturday, March 24, 2012

  Actual Average Record
Temperature  
Mean Temperature 66 °F -  
Max Temperature 75 °F 62 °F - (-1)
Min Temperature 57 °F 38 °F - (-1)
Cooling Degree Days 1    
Growing Degree Days 16 (Base 50)    
Moisture  
Dew Point 57 °F    
Average Humidity 79    
Maximum Humidity 96    
Minimum Humidity 32    
Precipitation  
Precipitation 0.65 in - - ()
Sea Level Pressure  
Sea Level Pressure 29.85 in    
Wind  
Wind Speed 5 mph (SSW)    
Max Wind Speed 16 mph    
Max Gust Speed 23 mph    
Visibility 8 miles    
Events Rain , Thunderstorm    
Averages and records for this station are not official NWS values.
T = Trace of Precipitation, MM = Missing Value Source: NWS Daily Summary

Daily Weather History Graph

Daily Weather History Graph

Search for Another Location

Airport or City:

Trip Planner

Search our weather history database for the weather conditions in past years. The results will help you decide how hot, cold, wet, or windy it might be!

Date:

Astronomy

Mar. 24, 2012 Rise Set
Actual Time 7:22 AM EDT 7:41 PM EDT
Civil Twilight 6:57 AM EDT 8:06 PM EDT
Nautical Twilight 6:27 AM EDT 8:36 PM EDT
Astronomical Twilight 5:56 AM EDT 9:07 PM EDT
Moon 8:06 AM EDT (3/24) 9:52 PM EDT (3/24)
Length of Visible Light 13h 09m
Length of Day
12h 18m
Waxing Crescent, 4% of the Moon is Illuminated
Mar 24
Waxing Crescent
Mar 30
First Quarter
Apr 6
Full
Apr 13
Last Quarter
Apr 21
New

Hourly Weather History & Observations

Time (EDT) Temp. Dew Point Humidity Pressure Visibility Wind Dir Wind Speed Gust Speed Precip Events Conditions
12:02 AM 62.6 °F 60.8 °F 94% 29.98 in 4.0 mi Calm Calm - N/A   Overcast
12:13 AM 62.6 °F 60.8 °F 94% 29.97 in 4.0 mi Calm Calm - N/A   Overcast
12:25 AM 62.6 °F 60.8 °F 94% 29.97 in 3.0 mi Calm Calm - 0.04 in Rain Heavy Rain
12:53 AM 62.1 °F 61.0 °F 96% 29.91 in 6.0 mi Calm Calm - 0.04 in   Overcast
1:37 AM 62.6 °F 60.8 °F 94% 29.96 in 4.0 mi SSW 6.9 mph - 0.07 in Rain Light Rain
1:41 AM 62.6 °F 60.8 °F 94% 29.95 in 1.8 mi SSW 6.9 mph - 0.17 in Rain Heavy Rain
1:48 AM 62.6 °F 60.8 °F 94% 29.95 in 1.2 mi South 4.6 mph - 0.30 in Rain Heavy Rain
1:53 AM 62.1 °F 61.0 °F 96% 29.89 in 1.2 mi South 3.5 mph - 0.36 in Rain Heavy Rain
2:01 AM 62.6 °F 60.8 °F 94% 29.95 in 3.0 mi South 5.8 mph - 0.02 in Rain Light Rain
2:09 AM 62.6 °F 60.8 °F 94% 29.95 in 7.0 mi Variable 3.5 mph - 0.02 in Rain Light Rain
2:19 AM 62.6 °F 60.8 °F 94% 29.94 in 6.0 mi South 4.6 mph - 0.02 in Rain Light Rain
2:53 AM 62.1 °F 61.0 °F 96% 29.88 in 7.0 mi South 3.5 mph - 0.03 in Rain Light Rain
3:32 AM 62.6 °F 60.8 °F 94% 29.92 in 2.5 mi South 4.6 mph - 0.07 in Rain Heavy Rain
3:40 AM 62.6 °F 60.8 °F 94% 29.91 in 7.0 mi South 4.6 mph - 0.07 in Rain Light Rain
3:48 AM 62.6 °F 60.8 °F 94% 29.91 in 9.0 mi South 3.5 mph - 0.07 in   Overcast
3:53 AM 62.1 °F 61.0 °F 96% 29.85 in 7.0 mi South 4.6 mph - 0.07 in Rain Light Rain
4:03 AM 62.6 °F 60.8 °F 94% 29.90 in 2.0 mi South 3.5 mph - 0.09 in Rain Light Rain
4:12 AM 62.6 °F 60.8 °F 94% 29.90 in 9.0 mi Calm Calm - 0.09 in Rain Light Rain
4:26 AM 62.6 °F 60.8 °F 94% 29.89 in 3.0 mi Calm Calm - 0.13 in Rain Heavy Rain
4:53 AM 62.1 °F 61.0 °F 96% 29.84 in 10.0 mi SSW 8.1 mph - 0.13 in   Overcast
5:53 AM 63.0 °F 60.1 °F 90% 29.85 in 10.0 mi SSW 6.9 mph - 0.00 in Rain Light Rain
6:53 AM 62.1 °F 61.0 °F 96% 29.86 in 9.0 mi Variable 5.8 mph - 0.00 in Rain Light Rain
7:51 AM 62.6 °F 60.8 °F 94% 29.90 in 9.0 mi South 8.1 mph - 0.02 in   Overcast
7:53 AM 62.1 °F 61.0 °F 96% 29.86 in 9.0 mi South 6.9 mph - 0.02 in Rain Light Rain
8:00 AM 62.6 °F 60.8 °F 94% 29.90 in 10.0 mi South 5.8 mph - 0.00 in Rain Light Rain
8:53 AM 63.0 °F 60.1 °F 90% 29.86 in 10.0 mi South 5.8 mph - 0.00 in   Scattered Clouds
9:16 AM 62.6 °F 60.8 °F 94% 29.92 in 10.0 mi South 5.8 mph - N/A   Mostly Cloudy
9:35 AM 64.4 °F 60.8 °F 88% 29.91 in 10.0 mi South 3.5 mph - N/A   Overcast
9:53 AM 64.0 °F 61.0 °F 90% 29.86 in 10.0 mi South 5.8 mph - 0.00 in Rain Light Rain
10:49 AM 66.2 °F 60.8 °F 83% 29.90 in 10.0 mi SSW 9.2 mph - N/A   Overcast
10:53 AM 66.9 °F 61.0 °F 81% 29.85 in 10.0 mi South 10.4 mph - N/A   Mostly Cloudy
11:04 AM 66.2 °F 60.8 °F 83% 29.90 in 10.0 mi SSW 6.9 mph 16.1 mph N/A   Mostly Cloudy
11:50 AM 69.8 °F 60.8 °F 73% 29.89 in 10.0 mi SSW 8.1 mph - N/A   Scattered Clouds
11:53 AM 69.1 °F 61.0 °F 75% 29.83 in 10.0 mi SW 8.1 mph - N/A   Partly Cloudy
12:53 PM 71.1 °F 57.9 °F 63% 29.79 in 10.0 mi SSW 8.1 mph - N/A   Scattered Clouds
1:14 PM 73.4 °F 57.2 °F 57% 29.83 in 10.0 mi SSW 13.8 mph 17.3 mph N/A Thunderstorm Partly Cloudy
1:32 PM 73.4 °F 55.4 °F 53% 29.82 in 10.0 mi South 11.5 mph 18.4 mph N/A   Partly Cloudy
1:53 PM 73.0 °F 55.0 °F 53% 29.75 in 10.0 mi SW 13.8 mph 21.9 mph N/A   Partly Cloudy
2:53 PM 73.9 °F 55.0 °F 52% 29.72 in 10.0 mi South 15.0 mph 21.9 mph N/A Thunderstorm Overcast
3:13 PM 73.4 °F 53.6 °F 50% 29.77 in 10.0 mi SSW 9.2 mph 21.9 mph N/A   Mostly Cloudy
3:53 PM 75.0 °F 51.1 °F 43% 29.68 in 10.0 mi SW 15.0 mph 21.9 mph N/A   Mostly Cloudy
4:53 PM 75.0 °F 48.0 °F 38% 29.68 in 10.0 mi SW 16.1 mph 23.0 mph N/A   Partly Cloudy
5:53 PM 73.4 °F 42.8 °F 33% 29.73 in 10.0 mi SW 13.8 mph 20.7 mph N/A   Clear
6:53 PM 71.1 °F 39.9 °F 32% 29.68 in 10.0 mi SSW 9.2 mph - N/A   Partly Cloudy
7:53 PM 66.0 °F 46.9 °F 50% 29.71 in 10.0 mi Variable 4.6 mph - N/A   Overcast
8:53 PM 64.0 °F 46.9 °F 54% 29.74 in 10.0 mi Variable 5.8 mph - N/A   Overcast
9:53 PM 60.1 °F 45.0 °F 57% 29.76 in 10.0 mi NNW 5.8 mph - N/A   Partly Cloudy
10:53 PM 57.0 °F 45.0 °F 64% 29.76 in 10.0 mi NNE 3.5 mph - N/A   Scattered Clouds
11:53 PM 57.9 °F 45.0 °F 62% 29.75 in 10.0 mi NW 3.5 mph - N/A   Overcast